ELY737 LLBG-ENBR

Flight info

Callsign ELY737
Flight time N/A
Altitude 34000
Route SUVAS N128 TEZAK L324 SAFTA DCT MAROS DCT EVENO DCT BENEM UN127 LMO DCT ATFIR DCT LOMOS DCT NARKA/N0463F360 DCT KEKED DCT KELEL DCT POKEN DCT PESUR
Aircraft B738/M-SDE2E3FGHIRWXY/LB1

Departure

Time 2026-05-01 09:30
Airport Ben Gurion International Airport (LLBG)

Arrival

Time N/A
Airport Bergen Airport, Flesland (ENBR)
Time Latitude Longitude Altitude Speed Heading
2026-05-01 08:59 32.00572 34.87232 114 ft 0 kts 213°
2026-05-01 09:19 32.00573 34.87233 119 ft 2 kts 213°
2026-05-01 09:19 32.00593 34.87251 114 ft 4 kts 234°
2026-05-01 09:19 32.00604 34.87271 116 ft 4 kts 233°
2026-05-01 09:20 32.00647 34.87296 115 ft 4 kts 186°
2026-05-01 09:20 32.00700 34.87298 115 ft 4 kts 173°
2026-05-01 09:21 32.00737 34.87264 115 ft 4 kts 96°
2026-05-01 09:21 32.00736 34.87235 116 ft 4 kts 74°
2026-05-01 09:21 32.00730 34.87212 117 ft 1 kts 77°
2026-05-01 09:23 32.00733 34.87233 119 ft 6 kts 78°
2026-05-01 09:24 32.00786 34.87333 119 ft 11 kts 30°
2026-05-01 09:24 32.00820 34.87407 118 ft 11 kts 109°
2026-05-01 09:24 32.00743 34.87560 117 ft 11 kts 121°
2026-05-01 09:25 32.00690 34.87664 115 ft 0 kts 122°
2026-05-01 09:25 32.00621 34.87796 117 ft 15 kts 121°
2026-05-01 09:26 32.00597 34.87910 114 ft 15 kts 59°
2026-05-01 09:26 32.00792 34.88062 119 ft 18 kts 27°
2026-05-01 09:26 32.00894 34.88138 116 ft 19 kts 32°
2026-05-01 09:27 32.00966 34.88193 117 ft 0 kts 31°
2026-05-01 09:27 32.00995 34.88215 117 ft 14 kts 31°
2026-05-01 09:28 32.01083 34.88280 119 ft 15 kts 32°
2026-05-01 09:28 32.01199 34.88361 118 ft 32 kts 31°
2026-05-01 09:28 32.01370 34.88537 119 ft 32 kts 51°
2026-05-01 09:28 32.01476 34.88761 115 ft 30 kts 70°
2026-05-01 09:29 32.01624 34.89155 118 ft 27 kts 359°
2026-05-01 09:29 32.01737 34.89032 119 ft 36 kts 263°
2026-05-01 09:30 32.01475 34.87326 129 ft 166 kts 258°
2026-05-01 09:30 32.01254 34.85894 568 ft 193 kts 261°
2026-05-01 09:30 32.00688 34.82859 2278 ft 199 kts 256°
2026-05-01 09:31 32.00325 34.81178 2501 ft 224 kts 256°
2026-05-01 09:31 31.99935 34.79337 2953 ft 239 kts 256°
2026-05-01 09:31 31.99409 34.75295 4079 ft 262 kts 281°
2026-05-01 09:32 31.99884 34.73305 5091 ft 259 kts 287°
2026-05-01 09:32 32.00950 34.69086 6822 ft 268 kts 285°
2026-05-01 09:32 32.01467 34.66969 7677 ft 270 kts 285°
2026-05-01 09:33 32.01974 34.64857 8478 ft 273 kts 285°